QPF
0.01 0.01 0.01 0.02 0.02 0.02 0.02 0.01 0.02 0.01 0.01 0.01 0.01 0.01 0.01 0.01 0.01 0.01 0.01 0.01 0.01 0.01 0.02 0.03 0.03 0.03 0.03 0.02 0.02 0.02 0.03 0.04 0.07 0.09 0.08 0.08 0.08 0.06 0.04 0.03 0.02 0.02 0.02 0.02
0.01 0.01 0.01 0.01 0.02 0.03 0.03 0.03 0.02 0.01 0.01 0.01 0.02 0.02 0.03 0.03 0.02 0.01 0.01 0.02 0.02 0.02 0.02 0.03 0.04 0.05 0.05 0.04 0.04 0.03 0.04 0.05 0.06 0.08 0.08 0.06 0.04 0.04 0.05 0.04 0.04 0.03 0.03 0.03
0.02 0.02 0.02 0.02 0.02 0.03 0.03 0.02 0.01 0.01 0.01 0.01 0.02 0.02 0.04 0.04 0.04 0.03 0.02 0.03 0.03 0.03 0.02 0.03 0.03 0.03 0.03 0.04 0.04 0.05 0.05 0.06 0.06 0.06 0.06 0.04 0.04 0.04 0.04 0.04 0.04 0.05 0.07 0.06
0.03 0.03 0.02 0.02 0.05 0.05 0.04 0.02 0.01 0.01 0.01 0.02 0.02 0.03 0.03 0.03 0.04 0.04 0.03 0.03 0.03 0.03 0.03 0.03 0.03 0.04 0.04 0.05 0.07 0.07 0.07 0.08 0.07 0.07 0.07 0.06 0.06 0.05 0.05 0.06 0.07 0.07 0.08 0.08
0.02 0.02 0.02 0.02 0.04 0.07 0.06 0.04 0.03 0.02 0.03 0.03 0.04 0.03 0.03 0.03 0.03 0.04 0.03 0.04 0.04 0.04 0.03 0.03 0.04 0.04 0.05 0.05 0.07 0.10 0.10 0.09 0.09 0.09 0.10 0.12 0.13 0.13 0.11 0.10 0.11 0.10 0.10 0.10
0.03 0.02 0.02 0.02 0.02 0.04 0.08 0.06 0.07 0.07 0.07 0.06 0.05 0.04 0.04 0.05 0.05 0.06 0.06 0.05 0.04 0.05 0.05 0.05 0.05 0.05 0.06 0.07 0.09 0.10 0.10 0.12 0.11 0.12 0.13 0.14 0.15 0.16 0.15 0.16 0.17 0.17 0.15 0.13
0.02 0.03 0.03 0.03 0.04 0.06 0.08 0.07 0.11 0.11 0.11 0.09 0.07 0.06 0.07 0.08 0.08 0.09 0.07 0.04 0.04 0.04 0.05 0.06 0.06 0.06 0.08 0.10 0.10 0.11 0.12 0.14 0.14 0.14 0.16 0.20 0.23 0.23 0.20 0.19 0.20 0.19 0.15 0.13
0.03 0.03 0.03 0.04 0.06 0.08 0.09 0.07 0.08 0.10 0.13 0.13 0.11 0.10 0.11 0.12 0.11 0.11 0.10 0.05 0.03 0.03 0.03 0.04 0.04 0.05 0.09 0.12 0.12 0.13 0.14 0.15 0.16 0.16 0.17 0.19 0.22 0.25 0.23 0.18 0.16 0.15 0.15 0.12
0.05 0.06 0.06 0.07 0.07 0.07 0.10 0.09 0.09 0.08 0.10 0.13 0.12 0.13 0.15 0.16 0.12 0.10 0.08 0.06 0.04 0.02 0.02 0.02 0.03 0.05 0.09 0.15 0.17 0.17 0.17 0.18 0.19 0.20 0.20 0.20 0.20 0.18 0.13 0.10 0.08 0.08 0.08 0.07
0.09 0.11 0.10 0.11 0.10 0.09 0.10 0.12 0.12 0.12 0.11 0.13 0.13 0.13 0.14 0.12 0.09 0.05 0.04 0.02 0.01 0.01 0.01 0.02 0.02 0.03 0.05 0.07 0.09 0.10 0.11 0.12 0.13 0.13 0.12 0.11 0.10 0.10 0.09 0.08 0.08 0.07 0.07 0.07
0.09 0.10 0.10 0.11 0.12 0.12 0.10 0.09 0.09 0.08 0.08 0.11 0.12 0.12 0.11 0.08 0.06 0.04 0.02 0.01 0.01 0.00 0.00 0.00 0.00 0.01 0.02 0.03 0.03 0.04 0.05 0.07 0.09 0.09 0.10 0.10 0.09 0.09 0.08 0.08 0.08 0.07 0.07 0.07
0.11 0.11 0.11 0.14 0.16 0.17 0.13 0.11 0.08 0.06 0.08 0.10 0.10 0.09 0.08 0.06 0.04 0.03 0.02 0.01 0.01 0.00 0.00 0.00 0.00 0.00 0.01 0.02 0.05 0.05 0.03 0.03 0.03 0.04 0.04 0.05 0.05 0.06 0.07 0.07 0.07 0.06 0.06 0.06
0.09 0.08 0.09 0.11 0.14 0.16 0.15 0.14 0.12 0.09 0.08 0.08 0.10 0.09 0.07 0.05 0.03 0.02 0.02 0.01 0.00 0.00 0.00 0.00 0.00 0.00 0.01 0.04 0.05 0.06 0.04 0.02 0.02 0.03 0.03 0.03 0.03 0.02 0.03 0.03 0.03 0.03 0.03 0.04
0.07 0.06 0.07 0.09 0.10 0.11 0.10 0.09 0.09 0.08 0.08 0.10 0.11 0.09 0.06 0.04 0.02 0.02 0.01 0.01 0.00 0.00 0.00 0.00 0.00 0.00 0.00 0.01 0.04 0.07 0.07 0.05 0.04 0.04 0.05 0.05 0.04 0.03 0.04 0.04 0.04 0.04 0.04 0.04
0.08 0.06 0.06 0.07 0.07 0.07 0.06 0.06 0.05 0.05 0.05 0.05 0.07 0.05 0.04 0.03 0.02 0.01 0.01 0.01 0.01 0.00 0.00 0.00 0.00 0.00 0.01 0.01 0.01 0.02 0.03 0.03 0.03 0.04 0.04 0.04 0.04 0.03 0.03 0.03 0.03 0.02 0.02 0.03
0.05 0.04 0.03 0.03 0.03 0.04 0.05 0.05 0.05 0.05 0.04 0.04 0.04 0.03 0.02 0.01 0.01 0.01 0.01 0.01 0.01 0.01 0.01 0.01 0.00 0.00 0.01 0.01 0.01 0.01 0.01 0.01 0.01 0.01 0.01 0.01 0.01 0.01 0.01 0.01 0.01 0.01 0.01 0.01
0.04 0.03 0.03 0.03 0.03 0.03 0.03 0.02 0.02 0.03 0.02 0.02 0.02 0.02 0.01 0.00 0.00 0.00 0.01 0.01 0.01 0.00 0.00 0.00 0.00 0.00 0.00 0.00 0.00 0.00 0.01 0.00 0.00 0.00 0.00 0.00 0.00 0.01 0.01 0.01 0.01 0.01 0.01 0.01
0.04 0.04 0.03 0.04 0.04 0.03 0.02 0.01 0.01 0.01 0.01 0.01 0.01 0.00 0.00 0.00 0.00 0.00 0.00 0.01 0.01 0.01 0.01 0.01 0.00 0.00 0.00 0.00 0.00 0.00 0.00 0.00 0.00 0.00 0.00 0.00 0.00 0.00 0.00 0.00 0.01 0.01 0.01 0.01
0.04 0.04 0.04 0.04 0.03 0.02 0.01 0.01 0.01 0.00 0.01 0.01 0.01 0.01 0.00 0.00 0.00 0.00 0.00 0.00 0.00 0.00 0.00 0.01 0.01 0.01 0.01 0.01 0.01 0.01 0.01 0.01 0.01 0.00 0.00 0.00 0.00 0.00 0.00 0.00 0.00 0.00 0.00 0.00
0.02 0.02 0.02 0.03 0.03 0.03 0.02 0.01 0.01 0.01 0.01 0.01 0.00 0.00 0.00 0.00 0.00 0.00 0.00 0.00 0.00 0.00 0.00 0.00 0.00 0.00 0.00 0.00 0.00 0.00 0.00 0.00 0.00 0.00 0.00 0.00 0.00 0.00 0.00 0.00 0.00 0.00 0.00 0.00
0.01 0.01 0.01 0.01 0.01 0.01 0.01 0.01 0.01 0.01 0.01 0.01 0.01 0.01 0.01 0.00 0.00 0.00 0.00 0.00 0.00 0.00 0.00 0.00 0.00 0.00 0.00 0.00 0.00 0.00 0.00 0.00 0.00 0.00 0.00 0.00 0.00 0.00 0.00 0.00 0.00 0.00 0.00 0.00
0.02 0.02 0.02 0.01 0.01 0.01 0.01 0.00 0.00 0.00 0.01 0.01 0.02 0.03 0.03 0.02 0.01 0.01 0.00 0.00 0.00 0.00 0.00 0.00 0.00 0.00 0.00 0.00 0.00 0.00 0.00 0.00 0.00 0.00 0.00 0.00 0.00 0.00 0.00 0.00 0.00 0.00 0.00 0.00
0.04 0.03 0.03 0.02 0.02 0.01 0.01 0.00 0.00 0.00 0.00 0.00 0.00 0.01 0.01 0.02 0.02 0.02 0.01 0.01 0.00 0.00 0.00 0.00 0.00 0.00 0.00 0.00 0.00 0.00 0.00 0.00 0.00 0.00 0.00 0.00 0.00 0.00 0.00 0.00 0.00 0.00 0.00 0.00
0.03 0.02 0.01 0.01 0.01 0.01 0.00 0.00 0.00 0.00 0.00 0.00 0.00 0.01 0.01 0.01 0.01 0.01 0.01 0.01 0.01 0.00 0.00 0.00 0.00 0.00 0.00 0.00 0.00 0.00 0.00 0.00 0.00 0.00 0.00 0.01 0.01 0.00 0.00 0.00 0.00 0.01 0.01 0.01
0.02 0.01 0.01 0.01 0.01 0.01 0.00 0.00 0.00 0.00 0.00 0.00 0.00 0.00 0.00 0.00 0.01 0.01 0.01 0.00 0.00 0.00 0.00 0.00 0.00 0.00 0.00 0.00 0.00 0.00 0.00 0.00 0.00 0.01 0.01 0.01 0.01 0.01 0.01 0.01 0.01 0.01 0.01 0.01
0.02 0.02 0.02 0.01 0.01 0.01 0.01 0.00 0.00 0.00 0.00 0.01 0.00 0.00 0.00 0.00 0.00 0.00 0.00 0.00 0.00 0.00 0.00 0.00 0.00 0.00 0.00 0.00 0.00 0.00 0.00 0.01 0.01 0.01 0.01 0.01 0.01 0.01 0.01 0.01 0.01 0.01 0.01 0.01
0.00 0.01 0.02 0.02 0.01 0.01 0.01 0.00 0.00 0.00 0.00 0.00 0.00 0.00 0.00 0.00 0.00 0.00 0.00 0.00 0.00 0.00 0.00 0.00 0.00 0.00 0.00 0.00 0.00 0.01 0.01 0.01 0.01 0.01 0.01 0.01 0.01 0.01 0.01 0.01 0.01 0.01 0.01 0.01
MSLP
1010.57 1010.61 1010.63 1010.62 1010.55 1010.38 1010.09 1009.66 1009.09 1008.42 1007.70 1007.01 1006.41 1005.98 1005.76 1005.77 1005.98 1006.35 1006.83 1007.36 1007.88 1008.34 1008.74 1009.08 1009.39 1009.69 1010.02 1010.40 1010.84 1011.31 1011.79 1012.26 1012.68 1013.03 1013.31 1013.53 1013.70 1013.85 1014.01 1014.19 1014.41 1014.68 1014.97 1015.28
1010.79 1010.71 1010.55 1010.31 1009.98 1009.56 1009.06 1008.48 1007.86 1007.21 1006.60 1006.07 1005.68 1005.46 1005.41 1005.54 1005.82 1006.20 1006.63 1007.07 1007.49 1007.86 1008.18 1008.49 1008.79 1009.12 1009.50 1009.94 1010.44 1010.96 1011.48 1011.97 1012.40 1012.75 1013.02 1013.22 1013.38 1013.52 1013.67 1013.84 1014.06 1014.31 1014.59 1014.89
1011.02 1010.80 1010.45 1009.99 1009.44 1008.81 1008.13 1007.45 1006.78 1006.18 1005.68 1005.32 1005.12 1005.08 1005.19 1005.42 1005.75 1006.12 1006.49 1006.84 1007.16 1007.43 1007.69 1007.95 1008.25 1008.61 1009.04 1009.53 1010.08 1010.65 1011.21 1011.71 1012.15 1012.49 1012.74 1012.93 1013.07 1013.20 1013.34 1013.51 1013.72 1013.97 1014.25 1014.54
1011.21 1010.85 1010.32 1009.67 1008.93 1008.13 1007.33 1006.58 1005.91 1005.37 1005.00 1004.79 1004.76 1004.88 1005.12 1005.44 1005.80 1006.16 1006.48 1006.76 1006.98 1007.18 1007.38 1007.61 1007.90 1008.28 1008.74 1009.28 1009.87 1010.47 1011.03 1011.53 1011.95 1012.27 1012.50 1012.66 1012.78 1012.90 1013.04 1013.21 1013.42 1013.67 1013.95 1014.23
1011.29 1010.77 1010.09 1009.29 1008.40 1007.50 1006.63 1005.87 1005.24 1004.79 1004.53 1004.47 1004.60 1004.86 1005.21 1005.61 1006.00 1006.36 1006.65 1006.87 1007.04 1007.18 1007.34 1007.55 1007.84 1008.23 1008.71 1009.26 1009.86 1010.45 1011.00 1011.48 1011.85 1012.13 1012.32 1012.45 1012.55 1012.65 1012.78 1012.95 1013.17 1013.42 1013.70 1013.97
1011.15 1010.50 1009.69 1008.78 1007.82 1006.88 1006.01 1005.29 1004.74 1004.40 1004.28 1004.37 1004.63 1005.02 1005.47 1005.94 1006.37 1006.73 1007.01 1007.21 1007.35 1007.48 1007.62 1007.82 1008.11 1008.50 1008.98 1009.52 1010.09 1010.65 1011.15 1011.57 1011.89 1012.11 1012.25 1012.34 1012.40 1012.49 1012.61 1012.78 1013.00 1013.25 1013.53 1013.80
1010.74 1009.97 1009.08 1008.13 1007.16 1006.25 1005.45 1004.82 1004.40 1004.20 1004.23 1004.46 1004.85 1005.34 1005.89 1006.42 1006.89 1007.28 1007.57 1007.78 1007.93 1008.05 1008.20 1008.41 1008.70 1009.08 1009.53 1010.04 1010.57 1011.06 1011.49 1011.83 1012.08 1012.23 1012.31 1012.35 1012.39 1012.45 1012.56 1012.72 1012.93 1013.19 1013.45 1013.72
1010.05 1009.20 1008.29 1007.35 1006.45 1005.64 1004.97 1004.49 1004.23 1004.19 1004.37 1004.73 1005.24 1005.83 1006.45 1007.04 1007.56 1007.98 1008.30 1008.54 1008.71 1008.86 1009.03 1009.25 1009.54 1009.90 1010.32 1010.78 1011.23 1011.65 1011.99 1012.25 1012.42 1012.51 1012.53 1012.52 1012.53 1012.56 1012.65 1012.80 1013.00 1013.24 1013.49 1013.74
1009.16 1008.29 1007.40 1006.55 1005.77 1005.12 1004.63 1004.34 1004.26 1004.39 1004.72 1005.20 1005.80 1006.47 1007.14 1007.77 1008.32 1008.78 1009.14 1009.41 1009.62 1009.81 1010.01 1010.24 1010.52 1010.86 1011.23 1011.63 1012.01 1012.34 1012.61 1012.79 1012.88 1012.91 1012.88 1012.84 1012.81 1012.82 1012.88 1013.01 1013.18 1013.40 1013.63 1013.84
1008.23 1007.39 1006.59 1005.86 1005.26 1004.80 1004.52 1004.43 1004.54 1004.83 1005.28 1005.86 1006.53 1007.23 1007.92 1008.57 1009.15 1009.63 1010.02 1010.32 1010.57 1010.79 1011.01 1011.25 1011.52 1011.83 1012.16 1012.48 1012.79 1013.05 1013.24 1013.36 1013.40 1013.39 1013.33 1013.26 1013.21 1013.19 1013.22 1013.31 1013.45 1013.62 1013.81 1014.00
1007.44 1006.68 1006.01 1005.46 1005.05 1004.81 1004.74 1004.84 1005.11 1005.52 1006.06 1006.69 1007.38 1008.09 1008.78 1009.41 1009.98 1010.46 1010.86 1011.19 1011.46 1011.70 1011.94 1012.17 1012.42 1012.69 1012.97 1013.23 1013.48 1013.67 1013.81 1013.89 1013.90 1013.86 1013.79 1013.70 1013.63 1013.59 1013.59 1013.64 1013.73 1013.85 1013.99 1014.13
1006.98 1006.35 1005.84 1005.47 1005.26 1005.22 1005.33 1005.58 1005.97 1006.46 1007.04 1007.68 1008.34 1009.01 1009.65 1010.24 1010.77 1011.23 1011.62 1011.95 1012.23 1012.47 1012.70 1012.92 1013.14 1013.36 1013.58 1013.79 1013.98 1014.12 1014.23 1014.28 1014.28 1014.24 1014.17 1014.09 1014.01 1013.94 1013.91 1013.91 1013.94 1014.00 1014.08 1014.17
1006.93 1006.46 1006.12 1005.93 1005.90 1006.02 1006.26 1006.62 1007.07 1007.59 1008.16 1008.75 1009.35 1009.94 1010.50 1011.02 1011.49 1011.91 1012.27 1012.58 1012.84 1013.07 1013.27 1013.46 1013.64 1013.81 1013.97 1014.12 1014.26 1014.37 1014.45 1014.49 1014.49 1014.46 1014.40 1014.33 1014.24 1014.16 1014.09 1014.03 1014.01 1014.00 1014.03 1014.07
1007.32 1007.00 1006.82 1006.78 1006.89 1007.12 1007.45 1007.86 1008.32 1008.81 1009.32 1009.84 1010.34 1010.83 1011.30 1011.73 1012.14 1012.50 1012.82 1013.09 1013.33 1013.52 1013.69 1013.83 1013.95 1014.06 1014.16 1014.25 1014.33 1014.41 1014.46 1014.50 1014.51 1014.50 1014.45 1014.39 1014.30 1014.20 1014.09 1013.99 1013.90 1013.84 1013.81 1013.81
1008.04 1007.86 1007.82 1007.90 1008.10 1008.40 1008.76 1009.17 1009.60 1010.03 1010.45 1010.87 1011.27 1011.66 1012.03 1012.38 1012.72 1013.02 1013.30 1013.54 1013.73 1013.89 1014.00 1014.09 1014.14 1014.18 1014.20 1014.23 1014.26 1014.29 1014.33 1014.36 1014.37 1014.37 1014.34 1014.27 1014.18 1014.06 1013.92 1013.78 1013.64 1013.53 1013.45 1013.42
1008.96 1008.90 1008.96 1009.12 1009.37 1009.69 1010.05 1010.42 1010.79 1011.14 1011.48 1011.80 1012.10 1012.40 1012.70 1012.98 1013.27 1013.53 1013.77 1013.98 1014.13 1014.24 1014.30 1014.32 1014.30 1014.26 1014.21 1014.17 1014.13 1014.12 1014.12 1014.13 1014.14 1014.13 1014.10 1014.04 1013.94 1013.81 1013.65 1013.47 1013.29 1013.14 1013.04 1012.99
1009.92 1009.95 1010.08 1010.28 1010.55 1010.86 1011.19 1011.51 1011.81 1012.10 1012.36 1012.60 1012.84 1013.08 1013.33 1013.58 1013.83 1014.07 1014.29 1014.47 1014.59 1014.66 1014.66 1014.61 1014.52 1014.40 1014.27 1014.15 1014.05 1013.98 1013.93 1013.91 1013.90 1013.89 1013.85 1013.79 1013.68 1013.53 1013.35 1013.15 1012.95 1012.78 1012.66 1012.60
1010.80 1010.90 1011.06 1011.28 1011.55 1011.84 1012.13 1012.41 1012.66 1012.89 1013.11 1013.31 1013.52 1013.74 1013.97 1014.21 1014.46 1014.69 1014.90 1015.06 1015.16 1015.18 1015.14 1015.03 1014.87 1014.67 1014.47 1014.27 1014.10 1013.96 1013.87 1013.80 1013.76 1013.73 1013.68 1013.60 1013.49 1013.33 1013.14 1012.93 1012.72 1012.54 1012.41 1012.35
1011.55 1011.68 1011.86 1012.09 1012.35 1012.62 1012.89 1013.14 1013.37 1013.58 1013.79 1013.98 1014.19 1014.42 1014.66 1014.92 1015.18 1015.42 1015.62 1015.77 1015.85 1015.85 1015.76 1015.59 1015.37 1015.11 1014.83 1014.56 1014.33 1014.13 1013.98 1013.87 1013.80 1013.73 1013.66 1013.57 1013.45 1013.29 1013.10 1012.89 1012.68 1012.50 1012.37 1012.31
1012.18 1012.33 1012.52 1012.76 1013.01 1013.28 1013.54 1013.79 1014.02 1014.25 1014.47 1014.69 1014.92 1015.18 1015.45 1015.72 1016.00 1016.25 1016.45 1016.59 1016.65 1016.61 1016.49 1016.28 1016.01 1015.70 1015.36 1015.04 1014.75 1014.50 1014.30 1014.15 1014.03 1013.93 1013.84 1013.73 1013.60 1013.44 1013.26 1013.06 1012.86 1012.69 1012.57 1012.50
1012.75 1012.92 1013.13 1013.38 1013.64 1013.92 1014.19 1014.46 1014.72 1014.97 1015.22 1015.48 1015.75 1016.04 1016.33 1016.63 1016.91 1017.15 1017.35 1017.47 1017.51 1017.45 1017.29 1017.05 1016.75 1016.40 1016.03 1015.66 1015.33 1015.04 1014.79 1014.60 1014.45 1014.32 1014.20 1014.08 1013.94 1013.78 1013.61 1013.42 1013.24 1013.08 1012.96 1012.89
1013.36 1013.56 1013.78 1014.04 1014.33 1014.62 1014.92 1015.22 1015.52 1015.81 1016.10 1016.39 1016.69 1017.00 1017.30 1017.60 1017.87 1018.10 1018.27 1018.36 1018.37 1018.28 1018.10 1017.84 1017.52 1017.15 1016.76 1016.37 1016.01 1015.69 1015.42 1015.19 1015.00 1014.84 1014.70 1014.56 1014.41 1014.25 1014.09 1013.92 1013.75 1013.60 1013.48 1013.41
1014.06 1014.28 1014.54 1014.82 1015.13 1015.45 1015.78 1016.12 1016.45 1016.78 1017.10 1017.41 1017.73 1018.03 1018.32 1018.59 1018.83 1019.02 1019.15 1019.21 1019.18 1019.07 1018.87 1018.60 1018.27 1017.90 1017.51 1017.12 1016.75 1016.41 1016.11 1015.85 1015.63 1015.44 1015.27 1015.11 1014.95 1014.79 1014.63 1014.47 1014.32 1014.18 1014.07 1013.98
1014.87 1015.12 1015.40 1015.71 1016.05 1016.40 1016.77 1017.13 1017.49 1017.84 1018.18 1018.50 1018.80 1019.08 1019.34 1019.57 1019.76 1019.89 1019.97 1019.98 1019.92 1019.78 1019.57 1019.30 1018.98 1018.62 1018.24 1017.85 1017.48 1017.14 1016.82 1016.53 1016.28 1016.06 1015.86 1015.68 1015.50 1015.34 1015.18 1015.03 1014.89 1014.76 1014.65 1014.54
1015.73 1016.02 1016.33 1016.67 1017.04 1017.42 1017.81 1018.20 1018.58 1018.94 1019.28 1019.59 1019.86 1020.11 1020.32 1020.49 1020.61 1020.69 1020.71 1020.67 1020.57 1020.41 1020.20 1019.93 1019.63 1019.29 1018.93 1018.56 1018.20 1017.85 1017.52 1017.21 1016.93 1016.68 1016.44 1016.23 1016.04 1015.86 1015.70 1015.56 1015.42 1015.30 1015.19 1015.08
1016.60 1016.91 1017.25 1017.62 1018.02 1018.42 1018.84 1019.24 1019.63 1020.00 1020.32 1020.61 1020.86 1021.06 1021.21 1021.32 1021.38 1021.40 1021.36 1021.28 1021.16 1020.99 1020.77 1020.52 1020.24 1019.92 1019.59 1019.24 1018.90 1018.55 1018.21 1017.88 1017.57 1017.28 1017.02 1016.78 1016.56 1016.37 1016.20 1016.05 1015.92 1015.80 1015.69 1015.57
1017.36 1017.70 1018.07 1018.47 1018.89 1019.32 1019.75 1020.17 1020.57 1020.94 1021.26 1021.53 1021.74 1021.90 1022.01 1022.06 1022.07 1022.04 1021.97 1021.85 1021.71 1021.53 1021.33 1021.09 1020.83 1020.55 1020.25 1019.92 1019.59 1019.25 1018.90 1018.56 1018.23 1017.91 1017.62 1017.35 1017.11 1016.89 1016.71 1016.56 1016.42 1016.30 1016.19 1016.06
Thickness
5698 5707 5709 5710 5713 5714 5710 5709 5706 5717 5724 5736 5743 5746 5748 5751 5752 5751 5750 5750 5750 5748 5747 5746 5744 5743 5742 5740 5738 5736 5732 5729 5727 5725 5723 5721 5719 5717 5716 5714 5713 5711 5709 5708
5689 5701 5703 5703 5710 5712 5713 5716 5715 5720 5724 5739 5743 5745 5744 5745 5746 5747 5748 5748 5748 5747 5745 5744 5744 5743 5742 5740 5738 5735 5732 5729 5727 5725 5722 5720 5718 5716 5713 5711 5710 5707 5706 5704
5670 5687 5691 5685 5701 5707 5710 5716 5717 5714 5725 5733 5734 5736 5737 5739 5741 5742 5744 5745 5744 5744 5743 5742 5742 5742 5740 5739 5736 5733 5730 5728 5726 5724 5721 5719 5716 5713 5710 5708 5706 5703 5702 5700
5660 5670 5663 5688 5707 5710 5708 5712 5716 5719 5724 5727 5728 5730 5732 5734 5735 5736 5738 5739 5739 5739 5739 5739 5739 5738 5738 5736 5733 5730 5727 5725 5723 5721 5718 5715 5712 5709 5707 5704 5702 5699 5698 5696
5652 5656 5667 5686 5697 5699 5697 5700 5712 5713 5716 5719 5723 5724 5722 5725 5728 5729 5731 5732 5733 5733 5733 5733 5733 5734 5732 5730 5728 5726 5723 5721 5719 5717 5713 5710 5707 5705 5703 5700 5696 5694 5693 5690
5651 5655 5657 5677 5692 5698 5694 5688 5705 5708 5708 5710 5714 5707 5708 5714 5718 5719 5721 5723 5724 5725 5726 5725 5726 5727 5726 5723 5721 5718 5717 5715 5712 5710 5707 5704 5702 5700 5697 5694 5690 5688 5686 5684
5647 5651 5661 5677 5686 5690 5675 5682 5695 5700 5701 5702 5702 5701 5702 5705 5707 5708 5710 5712 5713 5715 5715 5713 5715 5718 5716 5714 5711 5710 5709 5706 5704 5702 5701 5698 5694 5692 5689 5686 5683 5680 5677 5676
5643 5645 5653 5674 5678 5675 5676 5684 5689 5692 5694 5693 5693 5694 5694 5695 5695 5696 5697 5699 5701 5701 5701 5701 5704 5706 5704 5701 5701 5701 5699 5697 5694 5693 5692 5689 5686 5683 5680 5677 5674 5671 5669 5666
5645 5648 5660 5666 5668 5673 5676 5678 5682 5684 5687 5687 5685 5683 5683 5683 5683 5683 5684 5686 5688 5689 5688 5688 5690 5693 5691 5689 5690 5689 5687 5686 5684 5682 5680 5679 5676 5673 5670 5667 5664 5661 5658 5656
5645 5651 5657 5662 5667 5670 5674 5675 5678 5679 5679 5679 5676 5674 5673 5673 5671 5671 5672 5674 5676 5677 5676 5674 5676 5678 5677 5677 5678 5678 5676 5674 5672 5670 5668 5667 5665 5662 5659 5656 5653 5651 5648 5645
5641 5648 5653 5658 5661 5664 5667 5670 5670 5670 5670 5669 5668 5665 5663 5661 5660 5661 5661 5661 5662 5662 5662 5661 5663 5664 5665 5666 5668 5666 5663 5660 5658 5657 5655 5653 5651 5649 5647 5645 5643 5639 5636 5634
5639 5645 5646 5649 5655 5659 5660 5660 5661 5660 5658 5657 5657 5655 5653 5651 5650 5650 5650 5650 5650 5650 5650 5651 5652 5652 5652 5653 5653 5652 5649 5646 5644 5643 5641 5639 5637 5635 5633 5631 5629 5627 5624 5621
5642 5645 5645 5647 5649 5652 5652 5652 5652 5651 5649 5647 5645 5645 5643 5641 5640 5639 5639 5639 5639 5639 5639 5640 5640 5639 5639 5640 5640 5638 5636 5634 5632 5630 5628 5625 5624 5622 5619 5617 5615 5612 5609 5606
5642 5642 5640 5640 5641 5643 5644 5644 5643 5641 5639 5638 5636 5635 5633 5631 5629 5628 5627 5628 5628 5628 5628 5628 5628 5626 5626 5626 5626 5624 5622 5621 5618 5616 5614 5611 5609 5606 5604 5601 5598 5595 5592 5589
5636 5638 5635 5634 5635 5635 5636 5636 5634 5631 5630 5628 5627 5626 5624 5622 5620 5618 5618 5619 5618 5617 5616 5616 5615 5613 5613 5614 5613 5611 5609 5607 5604 5602 5599 5597 5594 5591 5588 5584 5581 5578 5576 5574
5629 5631 5630 5629 5627 5627 5628 5627 5625 5623 5622 5621 5619 5618 5616 5615 5612 5610 5609 5609 5608 5605 5604 5604 5603 5602 5602 5601 5600 5597 5594 5594 5591 5588 5585 5582 5578 5575 5572 5569 5565 5562 5559 5556
5623 5621 5621 5621 5620 5619 5618 5618 5618 5616 5615 5613 5611 5610 5608 5606 5603 5601 5599 5598 5597 5595 5593 5592 5591 5590 5589 5588 5586 5584 5580 5578 5576 5572 5569 5565 5562 5559 5556 5553 5550 5546 5543 5540
5619 5618 5618 5617 5615 5613 5612 5611 5611 5609 5607 5606 5604 5602 5600 5597 5594 5591 5589 5588 5587 5585 5582 5580 5579 5578 5577 5575 5572 5569 5567 5564 5560 5557 5554 5550 5547 5544 5540 5537 5534 5531 5529 5526
5613 5612 5612 5611 5609 5607 5605 5604 5602 5601 5599 5598 5596 5592 5590 5587 5584 5581 5580 5578 5575 5572 5569 5568 5567 5565 5563 5561 5558 5555 5552 5549 5545 5542 5538 5535 5532 5528 5525 5523 5520 5517 5514 5512
5604 5604 5604 5603 5601 5599 5597 5595 5594 5592 5590 5588 5585 5582 5578 5575 5573 5571 5568 5564 5560 5558 5556 5555 5554 5551 5548 5546 5544 5541 5538 5534 5531 5527 5524 5521 5518 5514 5511 5509 5506 5504 5501 5499
5595 5595 5594 5592 5590 5589 5587 5586 5585 5582 5579 5577 5575 5571 5568 5564 5562 5560 5557 5552 5548 5546 5545 5542 5539 5536 5534 5531 5529 5525 5523 5520 5517 5513 5510 5507 5505 5502 5499 5496 5493 5491 5489 5486
5584 5584 5583 5582 5579 5576 5575 5574 5573 5571 5568 5566 5563 5560 5557 5553 5550 5547 5543 5539 5537 5535 5532 5529 5526 5522 5520 5517 5514 5511 5508 5506 5503 5500 5497 5495 5492 5489 5487 5484 5481 5479 5476 5474
5573 5573 5571 5569 5567 5564 5563 5562 5560 5559 5557 5554 5551 5548 5545 5541 5538 5536 5531 5527 5525 5522 5519 5515 5512 5509 5506 5503 5501 5498 5495 5493 5490 5487 5485 5482 5480 5477 5475 5472 5470 5467 5465 5463
5562 5561 5559 5557 5556 5555 5551 5548 5546 5545 5543 5541 5538 5535 5532 5529 5525 5522 5519 5516 5513 5510 5506 5501 5499 5496 5493 5490 5488 5485 5483 5480 5478 5475 5473 5470 5468 5466 5464 5461 5459 5456 5454 5452
5552 5550 5548 5547 5545 5541 5538 5536 5534 5532 5531 5528 5525 5522 5520 5517 5514 5510 5507 5504 5500 5497 5493 5489 5486 5484 5481 5478 5476 5473 5471 5469 5467 5464 5462 5460 5458 5455 5453 5451 5449 5447 5445 5444
5540 5538 5535 5533 5531 5528 5527 5525 5523 5520 5518 5515 5512 5509 5507 5504 5501 5498 5494 5491 5488 5484 5481 5477 5474 5472 5469 5466 5464 5462 5460 5458 5456 5454 5452 5449 5447 5445 5444 5442 5440 5439 5437 5436
5528 5526 5524 5522 5519 5518 5516 5514 5511 5508 5505 5503 5499 5496 5494 5492 5489 5486 5483 5479 5476 5472 5469 5466 5463 5460 5458 5456 5453 5452 5450 5448 5446 5444 5442 5440 5438 5436 5435 5434 5433 5431 5431 5430